User: anonymous   Login
Location: Knowlton
(51.2333°N, 1.2667°E)
Time: 08:45:35
(UTC+00:00)
Language:

Spot 4 - Orbit

View from above orbital plane
View from above orbital plane
View from above satellite
View from above satellite

Ground track
Ground track

The orbit data is extracted from the following two-line orbital elements,

1 25260U 98017A   21166.87123563  .00000024  00000-0  16436-4 0  9991
2 25260  98.2814 258.6855 0014336 101.8492 258.4313 14.53678918213655
Epoch (UTC): 15 June 2021 20:54:34
Eccentricity: 0.0014336
inclination: 98.2814°
perigee height: 703 km
apogee height: 724 km
right ascension of ascending node: 258.6855°
argument of perigee: 101.8492°
revolutions per day: 14.53678918
mean anomaly at epoch: 258.4313°
orbit number at epoch: 21365

The dashed part of the orbit path shows where the satellite is in the earth's shadow,  

DLR